Wind_Gust
17 17 18 17 18 19 20 21 22 24 22 22 20 21 20 19 18 16 16 18 21 20 18 22 20 20 21 16 16 16 17 14 13 11 9 10 9 10 13 14 15 14 14 16 14 16 17 17 17 20 17 15 17 16 15 17 17 14 13 15 18 17 16 13 15 17 17 14 15 17 21 19 20 17 19 18 17 15 12 22 20 20 20 19 16
18 19 17 19 18 19 20 19 22 22 22 20 19 20 19 19 16 16 16 17 12 19 22 22 23 14 15 18 14 15 15 16 16 13 15 15 12 11 13 12 14 14 14 17 16 16 17 16 18 19 17 17 14 17 18 18 18 18 15 16 16 13 13 14 14 16 17 15 18 16 22 19 18 18 19 18 17 15 18 18 20 20 22 21 19
18 19 19 18 19 19 19 19 20 21 20 19 18 20 19 17 15 17 16 17 18 16 17 20 19 13 14 15 16 13 14 15 15 14 14 15 13 11 10 9 10 11 17 19 19 18 17 18 18 18 16 15 14 15 17 18 19 20 18 16 14 16 15 15 17 18 17 15 13 18 18 21 15 21 19 18 18 17 18 18 18 21 22 20 20
19 19 18 19 18 18 18 19 19 20 20 19 19 19 19 17 16 18 15 17 21 15 13 14 14 17 16 13 13 14 14 13 15 13 13 12 10 10 10 11 14 13 17 16 16 17 18 17 17 18 15 16 18 19 21 18 20 15 14 16 16 18 12 14 11 17 17 18 18 19 21 16 19 20 20 19 18 17 18 17 17 20 21 20 21
19 19 18 18 18 19 18 18 19 20 20 19 19 20 17 17 16 16 15 15 19 20 17 15 12 13 17 12 11 12 13 14 14 13 11 12 10 10 11 9 16 21 21 13 15 17 17 17 16 17 16 17 17 19 14 15 16 16 14 15 17 14 13 10 9 14 17 18 17 17 17 17 18 19 19 20 19 18 17 16 15 16 19 16 22
18 19 18 18 18 19 18 18 19 20 20 19 19 18 19 19 18 15 15 16 16 13 16 12 15 17 14 12 10 12 12 11 11 10 10 9 9 8 8 13 18 22 13 10 12 14 14 18 18 19 20 16 15 18 18 15 14 16 15 13 14 11 11 12 12 15 15 15 14 17 14 17 16 18 18 17 17 17 17 16 14 16 16 14 19
18 17 18 18 18 20 19 21 22 20 22 23 22 21 21 18 17 18 16 17 17 17 15 16 15 16 17 17 19 16 14 15 13 10 10 14 12 12 15 22 23 19 18 16 13 14 15 16 21 23 21 13 14 15 13 14 15 14 14 14 13 13 13 15 13 17 11 14 15 14 15 14 12 14 16 15 16 15 15 15 15 16 16 16 19
19 19 19 19 19 20 20 20 21 23 22 23 22 22 23 22 21 19 18 18 18 15 16 17 15 14 13 12 16 18 18 18 20 18 16 10 11 16 19 18 19 20 17 17 13 15 17 14 14 14 15 15 14 14 13 14 12 12 12 14 11 15 17 14 17 19 16 13 14 15 14 15 13 9 12 14 14 13 17 16 15 15 16 15 17
19 20 20 21 21 20 20 19 21 22 22 22 23 23 23 23 23 22 20 19 17 17 17 16 15 14 13 17 20 21 20 18 16 16 17 16 14 14 15 16 14 13 16 21 25 22 19 12 9 17 14 14 14 13 12 9 13 12 11 8 8 11 13 17 15 14 17 17 11 11 10 11 13 14 16 14 14 14 12 11 12 12 15 16 16
21 21 22 22 22 21 21 21 22 22 23 23 22 22 22 22 22 22 23 23 23 21 19 19 22 22 20 20 20 20 17 16 18 19 16 14 14 20 14 15 12 12 13 14 15 12 18 13 14 17 14 16 14 13 13 13 12 10 14 14 14 12 15 16 17 19 14 16 15 13 11 12 10 10 11 14 14 13 14 14 15 15 13 12 13
21 22 22 23 23 22 21 22 23 23 22 22 22 22 23 23 22 23 23 23 23 23 21 22 21 20 20 21 21 19 18 19 22 18 17 14 13 12 13 10 11 14 11 18 17 17 15 20 15 14 14 12 15 14 14 15 17 19 18 14 10 11 15 16 11 15 17 17 14 14 12 11 10 9 12 14 14 13 15 17 20 16 17 18 16
23 23 23 22 22 23 22 22 23 23 22 23 22 22 23 23 23 23 23 23 23 23 24 20 20 19 19 19 19 18 18 21 24 23 20 17 11 15 19 19 18 14 16 15 21 15 16 21 19 17 12 14 15 15 14 17 20 20 20 20 20 18 13 13 12 15 11 13 13 12 12 9 8 11 11 10 14 20 19 20 22 18 13 16 13
24 23 23 23 23 23 22 22 22 22 23 22 22 24 24 23 23 23 24 22 22 24 24 23 21 20 21 21 20 19 19 25 24 24 21 20 22 20 23 22 22 24 24 22 13 12 11 10 11 13 14 11 15 16 16 17 17 21 21 20 20 19 16 17 14 16 13 13 14 10 9 9 11 8 13 11 18 15 13 13 15 17 18 14 8
23 23 23 24 23 22 22 22 22 22 21 22 23 24 24 24 22 21 21 23 24 24 23 24 23 21 20 18 16 17 20 25 24 24 23 20 23 18 21 24 23 27 25 24 21 20 16 14 14 15 19 19 18 15 17 16 16 15 17 18 17 18 18 17 17 17 14 16 16 13 10 15 12 10 9 10 14 16 15 12 10 14 14 11 10
23 23 23 24 24 23 23 22 22 22 22 22 23 24 24 22 23 22 21 22 24 24 22 22 22 21 19 18 21 19 21 28 27 27 24 20 24 17 23 26 26 22 26 24 24 22 21 17 17 17 19 19 16 18 12 12 14 18 19 18 18 18 20 20 19 17 16 16 17 15 15 15 15 15 15 14 14 8 9 14 15 13 15 12 12
23 23 23 24 24 24 23 22 22 22 23 23 23 24 23 24 23 20 19 20 20 20 22 22 22 22 21 21 23 25 26 31 29 29 26 21 20 24 23 19 19 19 22 23 23 23 22 19 17 17 19 19 18 19 15 14 13 18 18 17 18 18 19 11 11 16 19 18 17 17 15 14 11 15 15 15 13 9 11 13 13 13 17 15 13
24 23 23 23 24 24 24 24 23 23 23 24 24 23 22 22 22 21 21 21 19 19 19 21 21 22 24 25 24 23 26 28 31 29 26 26 14 20 20 18 18 19 20 20 21 22 23 24 20 20 20 18 17 19 19 15 11 12 16 17 17 18 18 15 14 15 17 19 18 16 15 16 17 17 18 18 16 12 11 12 13 15 15 11 11
23 22 23 23 23 24 24 24 23 23 23 24 23 22 22 21 22 22 22 21 22 20 18 20 22 24 25 26 26 24 23 27 32 28 27 28 17 18 17 18 18 18 18 18 18 20 24 31 25 18 17 16 20 24 22 17 18 15 13 15 18 17 16 14 13 14 12 15 16 16 16 16 17 17 19 18 18 13 12 11 9 12 13 11 12
23 22 22 22 22 22 24 25 25 25 25 23 23 22 22 21 21 22 22 22 22 21 21 22 22 24 25 24 25 26 21 25 30 30 30 30 24 19 19 18 19 18 15 16 18 19 18 20 26 22 18 18 23 23 23 18 17 14 13 14 16 15 12 10 10 10 9 11 11 11 12 11 13 15 15 18 18 13 15 13 9 8 11 12 14
22 22 21 22 22 24 23 24 24 24 24 23 23 22 19 20 20 18 19 20 22 23 23 23 23 24 24 25 27 25 23 24 31 31 31 29 27 23 19 20 19 18 19 17 16 17 18 19 20 22 22 24 23 23 23 21 19 18 17 15 13 15 11 13 14 12 14 13 14 13 12 12 12 13 14 14 15 15 16 14 13 12 8 10 13
22 22 22 23 23 24 24 24 25 24 23 23 22 23 23 22 21 21 21 21 21 21 21 21 24 24 23 23 24 26 27 23 25 28 28 29 28 20 18 19 16 17 17 18 18 19 19 19 17 19 22 23 22 23 23 22 17 21 20 18 15 15 11 13 13 9 14 12 11 11 10 10 11 13 13 14 14 13 13 14 14 14 16 17 15
22 22 23 24 23 24 24 22 22 23 23 24 24 24 22 22 22 22 21 20 21 22 20 20 22 23 23 21 23 24 23 25 25 24 26 26 26 26 20 19 16 15 18 19 19 19 16 15 16 17 20 21 21 21 21 20 20 20 19 16 21 20 16 12 11 12 12 11 11 11 12 12 12 13 13 13 13 13 13 14 15 17 19 19 20
21 21 22 22 22 23 24 23 22 22 22 22 22 23 22 22 21 21 19 18 20 20 20 20 20 20 20 20 20 22 21 20 23 23 23 24 25 24 24 20 18 20 19 20 19 17 15 16 15 17 19 19 21 21 20 20 16 19 20 19 19 18 13 14 13 13 12 11 11 12 9 9 10 12 12 12 11 11 13 13 14 16 17 19 20
19 19 19 20 21 21 22 22 23 23 23 23 23 23 22 21 21 22 20 19 19 20 19 18 18 18 19 17 17 18 18 19 17 22 21 21 22 23 23 24 22 18 19 19 16 15 14 14 16 19 18 19 20 20 21 20 20 20 19 19 17 13 14 13 12 11 8 10 12 12 15 16 15 14 11 11 12 12 12 12 14 16 16 16 18
19 19 19 19 20 21 21 21 20 19 19 21 22 23 22 22 23 22 20 21 21 21 21 21 20 20 20 20 19 17 17 18 18 19 21 20 17 18 20 21 22 19 19 14 12 13 13 15 17 18 18 18 19 16 15 18 21 20 20 18 15 17 15 13 12 11 11 10 9 9 11 13 13 12 10 8 7 8 10 10 11 11 14 16 16
20 20 21 21 21 21 21 21 22 22 20 22 22 23 23 23 23 23 22 21 21 21 20 21 21 20 20 19 19 19 18 18 17 18 16 16 13 16 16 17 16 15 14 15 13 15 15 14 16 16 15 16 17 16 15 17 17 18 19 16 15 14 13 13 13 12 11 12 13 12 10 8 9 9 6 4 5 7 7 11 10 12 12 12 14
19 18 18 20 19 21 20 21 22 22 22 22 22 23 25 25 25 25 24 23 21 20 20 20 21 21 20 19 20 19 19 18 19 18 18 18 17 14 16 16 13 12 14 13 10 12 14 13 12 12 12 15 14 12 13 13 14 13 12 12 12 12 12 12 13 12 12 11 9 8 8 8 7 6 7 7 8 9 8 5 6 8 8 11 14
18 18 18 17 18 18 18 11 18 23 24 24 24 23 23 24 27 27 26 25 24 22 21 20 20 21 21 19 18 19 19 20 20 21 20 19 18 16 15 13 12 12 13 12 10 11 11 8 12 11 13 13 13 12 12 12 13 12 13 12 12 11 10 8 8 11 10 8 8 8 7 7 8 8 9 9 8 8 9 7 7 8 9 12 12
15 16 16 16 16 16 17 17 17 18 21 24 25 24 22 22 24 23 20 20 20 20 21 21 20 18 22 22 19 19 19 20 18 9 14 10 12 15 14 14 13 11 8 7 8 10 11 13 12 12 11 9 10 11 11 11 10 12 13 12 11 11 10 9 9 9 9 8 9 7 7 8 7 6 8 10 9 9 9 9 7 5 9 8 10
16 17 17 16 16 16 16 16 16 17 18 20 22 21 14 17 15 20 18 11 14 14 12 20 19 19 18 20 19 18 17 14 9 11 11 11 11 10 7 9 8 9 10 12 6 8 9 9 9 8 9 8 9 9 9 9 9 10 11 7 9 11 10 9 9 8 8 8 9 8 9 7 8 6 7 7 7 7 8 7 8 6 7 6 11
16 17 17 17 16 16 16 17 17 17 17 17 19 19 19 18 14 15 12 10 13 15 14 16 19 19 20 16 14 11 7 5 9 9 12 12 11 11 12 12 13 14 12 9 8 8 8 8 7 7 8 9 7 7 5 6 6 6 7 6 9 8 6 7 10 7 7 5 6 6 6 6 3 6 6 4 9 10 7 9 7 10 10 5 10
16 16 16 16 16 15 16 16 16 17 17 18 18 15 18 19 16 8 8 10 9 12 15 16 15 14 15 15 12 14 12 12 13 11 12 13 13 13 14 14 13 13 15 10 7 7 7 6 6 7 8 7 5 4 5 4 3 6 5 4 5 4 4 6 7 8 7 8 8 6 5 5 7 5 5 6 5 6 10 9 11 15 11 14 13
17 16 15 14 15 15 16 17 16 17 17 18 17 17 19 18 15 16 10 4 6 8 13 13 13 13 12 10 9 5 4 8 12 12 12 11 11 10 12 13 12 14 12 7 7 5 5 6 9 8 8 7 7 9 9 8 5 5 4 4 3 6 8 5 5 14 11 10 8 5 6 9 8 8 8 8 8 8 6 7 6 8 9 11 12
18 19 18 15 17 16 16 17 17 17 17 18 18 18 18 16 19 19 14 17 14 8 4 8 12 13 11 11 10 8 9 10 11 13 14 15 15 11 7 14 14 16 11 10 11 11 15 15 14 14 13 12 10 10 9 11 10 8 6 7 6 6 5 6 8 8 6 8 6 7 7 5 5 6 7 7 7 6 7 6 10 9 9 8 8
18 14 14 14 18 18 18 18 17 17 17 17 18 18 17 15 17 17 20 21 20 17 16 15 7 8 15 10 8 7 7 10 12 13 15 17 19 17 10 14 10 16 18 19 18 18 17 16 15 15 15 14 12 9 9 11 12 11 12 10 11 11 10 8 6 7 6 7 6 6 5 5 4 6 7 10 9 8 9 12 13 10 8 6 8
15 16 16 16 18 18 19 18 17 18 17 17 17 18 16 17 17 17 18 19 18 18 20 18 15 5 10 10 10 7 10 10 12 13 14 16 18 17 15 16 13 15 15 16 16 15 16 16 16 15 14 14 13 13 13 12 12 12 13 11 11 11 10 9 8 8 6 6 6 6 7 7 3 9 11 9 6 9 12 10 10 12 12 11 8
17 17 16 16 16 15 16 16 16 15 11 16 17 17 17 17 15 17 18 18 17 20 21 21 18 13 8 11 11 6 7 10 10 14 15 14 14 17 20 20 18 17 15 16 16 15 15 15 15 15 17 15 14 13 12 11 11 11 9 13 12 12 11 10 9 7 8 7 7 4 3 7 4 6 10 8 8 10 9 7 9 9 9 11 9
19 18 19 19 16 16 16 17 15 7 14 16 17 17 17 17 17 17 16 17 17 16 20 22 13 20 22 21 13 15 9 8 7 10 12 13 12 16 17 18 19 20 18 18 15 14 15 15 15 16 17 16 13 13 11 11 10 8 8 10 7 6 6 7 6 7 5 5 5 6 4 5 5 3 5 11 9 8 8 7 8 9 13 15 13
19 10 9 11 12 16 17 15 16 17 16 14 16 16 15 16 17 18 18 17 17 17 18 18 21 21 22 21 19 18 19 18 18 17 16 16 16 17 17 18 17 17 18 18 17 15 14 13 12 12 13 15 13 13 11 9 10 8 8 7 5 6 7 7 6 7 7 7 8 9 9 9 7 11 9 9 7 7 7 8 11 11 12 12 11
16 14 9 11 12 15 14 14 15 16 16 17 17 16 15 16 17 16 16 17 15 14 16 16 17 19 19 18 18 19 20 16 15 16 15 15 15 17 18 16 18 17 18 18 17 17 17 14 13 13 13 12 12 13 11 10 7 8 8 8 8 7 5 5 5 4 4 8 11 11 11 9 7 7 9 9 9 9 9 9 9 10 9 7 7
15 15 11 11 8 13 13 15 17 16 16 16 15 15 15 15 14 14 17 13 13 15 17 16 16 16 15 10 10 10 18 18 18 17 17 14 14 17 17 16 14 16 16 16 15 16 17 16 13 10 9 10 9 10 10 8 9 10 9 8 7 7 8 9 10 10 11 9 12 14 14 15 12 9 10 8 7 8 7 7 8 7 7 6 6
12 13 13 12 12 13 13 15 16 16 14 14 17 16 15 14 14 15 15 11 15 15 14 17 17 16 8 4 9 12 15 16 16 16 16 16 16 16 13 14 16 16 15 13 16 13 13 15 12 10 9 10 11 10 9 9 10 12 11 11 11 10 9 7 9 11 13 10 8 10 11 9 9 11 8 4 7 6 7 6 7 6 10 8 8
12 11 12 11 13 12 14 16 14 15 15 15 13 9 12 15 16 15 13 14 14 15 12 13 15 15 10 6 9 9 12 16 9 15 15 15 15 12 14 11 14 16 16 14 15 13 13 13 13 11 9 7 8 10 11 11 10 10 9 11 11 10 10 11 12 12 12 13 13 9 6 8 8 5 5 5 3 5 9 6 5 7 5 6 4
16 14 11 10 13 11 11 13 15 13 12 8 9 11 12 13 14 16 17 16 15 15 13 13 14 14 14 10 10 12 16 16 15 14 15 13 13 10 11 12 14 13 13 12 12 11 11 10 10 11 9 8 7 6 8 7 9 9 7 11 10 11 10 9 10 10 13 13 12 13 13 8 9 8 5 6 5 5 4 4 3 3 4 6 6
12 13 12 12 13 12 15 15 11 10 9 9 10 11 11 13 13 14 15 17 16 15 14 13 12 11 13 14 15 14 14 15 12 11 10 10 10 11 10 10 10 10 10 11 10 12 10 11 9 7 8 9 11 11 11 7 6 8 10 8 7 11 10 10 9 10 11 9 15 14 17 13 7 10 9 6 4 3 5 6 4 5 3 8 9
11 10 13 10 16 9 17 17 11 11 9 11 9 12 11 13 13 12 11 13 14 13 14 14 11 10 10 12 12 13 13 14 14 12 11 9 9 10 9 9 10 11 10 9 9 6 7 8 8 9 8 8 8 10 11 10 6 5 7 11 12 11 11 11 10 10 12 12 11 14 13 13 12 10 7 10 8 6 9 6 5 4 3 6 8
9 8 8 10 14 10 10 9 12 12 10 10 10 10 12 12 11 11 10 9 11 12 12 12 12 13 12 14 10 12 12 12 11 10 11 10 9 8 8 9 10 9 11 8 7 7 7 3 5 6 4 6 6 6 8 9 8 9 12 13 15 14 13 13 12 10 12 13 12 12 12 12 10 11 12 8 6 5 3 3 5 3 3 6 6
10 13 9 9 8 8 9 8 11 9 9 11 9 11 10 11 11 10 12 13 12 12 13 12 13 14 13 14 14 14 13 13 11 11 10 9 8 7 7 6 6 9 11 9 5 7 7 5 3 3 4 3 3 5 6 7 7 7 10 14 12 10 11 9 10 11 12 12 12 10 10 11 10 10 11 10 7 8 8 6 6 6 6 6 6
12 14 12 12 12 9 9 9 8 8 7 7 10 11 10 10 11 12 12 13 13 14 14 14 15 14 14 15 14 14 13 13 12 11 9 8 10 10 8 6 6 5 8 8 8 7 4 4 3 4 4 5 3 3 5 3 5 6 9 10 9 8 8 9 8 10 13 12 10 10 10 11 10 8 9 5 5 6 7 8 6 4 4 4 3
9 10 7 9 9 9 9 7 8 9 9 9 9 11 11 12 11 12 12 13 14 15 15 14 14 14 14 15 15 16 14 13 13 13 12 10 9 8 8 8 6 5 9 10 11 6 5 7 5 4 3 4 4 4 5 3 3 6 7 7 6 6 5 7 5 6 11 10 13 14 13 11 10 9 7 6 4 4 5 7 5 6 5 3 3
12 8 11 8 9 8 10 10 10 10 11 10 11 11 10 12 13 13 12 12 14 15 14 14 15 15 15 14 13 15 15 14 14 14 13 12 11 9 9 9 8 6 7 7 8 8 7 7 9 7 5 4 4 3 5 4 6 7 7 7 5 4 5 7 6 6 8 8 11 13 13 11 10 9 7 8 6 5 6 5 5 5 8 7 6
Wind_Speed
6 5 6 7 8 9 8 8 8 9 9 10 9 8 7 7 7 7 7 6 6 6 7 7 5 4 7 8 6 6 8 4 4 2 4 5 4 3 4 3 5 3 3 5 4 5 5 7 8 8 7 7 6 5 4 4 4 3 3 4 4 2 8 7 7 4 2 2 4 6 7 6 7 7 9 6 6 5 6 9 10 8 8 7 6
8 8 8 8 9 9 9 8 8 9 9 8 8 7 7 8 7 7 7 7 6 7 6 5 5 4 2 4 3 4 1 3 3 3 4 3 3 5 6 6 6 8 5 3 4 5 7 8 10 8 7 7 6 6 5 4 4 3 6 5 1 2 0 5 4 6 5 3 2 3 6 7 6 7 8 7 6 5 8 7 7 8 8 8 7
8 9 9 9 9 8 8 8 9 9 9 7 9 9 8 7 7 7 8 8 7 6 5 5 3 4 4 2 2 4 2 4 3 4 4 5 5 4 3 4 6 6 6 4 4 4 3 5 6 6 6 6 5 3 3 4 2 9 9 2 3 2 4 4 4 4 7 5 4 5 6 9 5 8 8 7 7 7 9 9 9 8 8 8 8
9 9 8 8 8 8 9 8 8 10 10 8 9 8 8 7 7 8 7 6 7 6 4 6 6 5 5 4 2 1 2 3 4 3 4 2 2 3 3 3 3 3 4 5 5 5 7 9 9 6 5 5 4 3 2 6 6 3 6 8 8 3 6 7 2 5 6 7 6 6 5 4 2 8 7 6 6 6 7 7 9 9 9 9 9
8 8 7 7 7 8 9 10 11 12 10 9 11 10 10 9 7 8 8 8 8 7 6 7 7 7 4 5 3 3 1 3 3 1 1 1 1 1 1 2 3 2 4 5 8 9 9 7 5 3 5 4 3 2 3 7 4 6 7 7 7 5 6 4 2 4 5 6 6 5 7 6 6 7 8 7 7 6 7 7 7 7 11 9 8
6 6 6 7 7 9 9 10 11 12 12 11 12 10 9 10 8 8 9 9 9 8 7 7 7 8 8 7 3 1 5 4 3 3 1 2 0 0 1 0 1 2 2 2 1 1 1 1 7 8 10 5 1 2 4 4 4 2 2 5 6 6 4 4 1 4 5 5 6 4 7 8 6 7 9 8 7 6 7 7 5 6 8 8 7
7 6 7 7 8 9 10 10 10 10 9 10 10 11 11 11 10 10 9 10 10 10 9 9 9 8 8 8 6 6 9 9 7 5 2 3 2 1 0 0 0 1 0 1 1 0 4 6 5 6 8 4 5 6 4 3 6 5 3 2 4 3 5 3 3 3 2 5 4 4 5 5 5 7 8 9 8 5 6 6 3 6 5 9 7
8 9 9 10 10 9 9 9 9 9 9 10 11 11 12 12 12 11 10 10 11 9 7 8 7 8 7 7 10 10 10 10 9 8 9 4 3 4 3 3 2 1 1 1 1 5 2 1 2 1 1 1 3 3 5 5 5 4 5 8 5 5 4 3 3 4 3 1 2 3 2 3 3 3 3 7 6 5 5 4 4 5 7 7 7
10 10 11 10 10 9 8 8 8 9 11 11 12 12 12 12 12 12 12 11 9 10 10 10 9 7 7 10 11 9 8 7 7 7 6 9 8 5 4 4 5 3 2 2 6 4 3 3 2 2 1 6 6 5 4 4 4 6 6 5 5 4 3 3 5 5 5 4 4 2 3 3 2 1 1 2 7 4 4 7 4 5 7 7 6
11 10 11 10 9 9 9 8 9 10 11 11 12 12 12 11 12 13 13 13 12 12 11 12 13 13 11 10 10 10 7 6 12 14 10 5 6 7 5 4 4 6 8 5 3 3 4 5 6 14 10 11 9 7 6 3 3 2 4 4 6 5 5 5 6 7 1 1 3 1 6 2 1 0 1 2 4 4 3 3 2 5 7 5 7
11 10 10 9 10 10 9 10 10 11 11 11 11 12 12 11 11 12 11 12 13 12 11 12 12 12 12 9 9 8 7 9 16 14 14 12 7 7 4 2 6 8 4 2 0 2 4 5 5 9 7 5 5 10 11 10 8 13 13 12 7 5 5 6 5 4 4 1 4 2 2 1 1 2 2 1 2 2 5 6 7 7 0 6 5
11 11 10 9 10 11 10 11 11 11 11 12 12 11 11 11 12 11 11 12 12 12 13 12 11 11 11 8 9 9 9 16 19 17 14 11 7 7 11 10 10 8 6 1 4 4 4 2 2 3 4 1 1 6 8 11 15 16 16 15 14 14 9 4 5 5 3 3 3 5 6 4 1 4 2 2 4 7 6 6 3 4 3 1 1
11 11 11 11 11 11 11 11 11 11 12 12 11 11 11 12 12 12 12 10 11 13 13 13 11 12 12 12 12 10 10 19 19 18 16 16 18 13 9 10 10 10 10 8 7 4 4 5 5 5 3 5 5 7 6 9 13 17 16 16 16 16 14 12 4 8 8 6 3 2 2 4 5 2 3 6 7 8 4 5 3 2 2 2 3
11 11 11 12 12 12 12 12 12 12 12 11 11 11 11 12 12 11 11 11 12 12 12 13 13 13 11 8 9 9 11 19 18 18 17 15 15 13 10 10 11 11 11 9 9 9 6 6 6 7 6 8 7 4 8 9 8 7 10 10 10 13 15 15 11 7 9 5 6 4 3 3 4 5 5 2 4 5 7 5 2 3 3 2 3
11 11 12 12 12 12 12 11 11 12 12 11 11 11 11 11 12 11 10 10 11 11 11 12 12 12 11 10 12 12 11 22 20 21 18 15 14 12 10 10 10 11 11 11 10 11 10 8 10 9 8 8 6 5 2 5 6 10 11 9 9 10 10 9 9 7 6 6 8 8 8 8 7 5 5 3 5 4 5 7 7 6 6 6 5
11 11 12 11 12 12 12 11 11 12 12 11 11 11 11 11 11 9 9 9 9 9 9 10 12 13 11 12 13 14 12 23 21 23 21 17 13 9 8 10 10 11 12 12 12 9 11 10 9 10 9 11 13 11 10 7 6 10 10 10 10 10 9 4 9 12 11 9 8 9 8 8 8 8 7 5 4 2 5 7 7 6 6 5 4
12 11 12 12 12 12 12 13 12 12 12 12 12 12 11 10 10 8 9 9 9 10 10 10 10 11 13 13 14 13 14 20 24 23 21 21 11 8 9 9 10 11 11 11 11 11 11 10 8 8 8 10 13 16 14 13 6 4 9 10 9 9 8 6 9 12 14 15 14 14 13 14 14 15 15 15 10 4 6 6 4 4 6 6 2
11 12 12 12 12 12 12 12 12 12 12 12 12 11 9 8 9 8 9 10 11 10 9 9 11 12 14 13 12 11 12 19 24 22 22 22 13 9 7 8 10 10 10 10 9 10 13 20 15 9 9 8 15 19 16 11 10 8 7 9 10 9 6 4 5 7 9 11 12 13 13 14 14 15 16 15 16 10 5 6 2 3 6 5 4
11 11 11 12 12 11 11 11 12 12 12 12 11 12 10 9 7 8 8 9 9 9 9 10 10 11 12 12 19 14 10 18 24 23 23 23 16 10 10 9 11 10 8 9 10 10 10 12 18 13 10 13 19 17 18 14 9 8 7 8 9 8 6 3 2 3 3 4 4 5 6 8 7 7 10 15 15 12 8 5 1 3 6 5 6
11 11 11 11 10 10 9 10 10 11 11 11 11 10 9 9 10 9 9 9 9 9 9 10 11 11 11 11 12 13 13 14 20 24 24 23 21 12 10 10 10 10 10 9 9 9 9 10 13 17 18 19 19 19 19 17 11 9 9 8 6 7 4 8 8 6 7 6 5 6 6 6 6 6 6 7 8 9 9 7 7 6 4 3 5
11 11 11 11 12 12 10 10 11 11 10 9 8 9 9 9 9 9 9 8 9 9 10 10 11 11 10 11 11 12 12 12 15 22 22 22 22 15 9 10 9 9 9 10 10 10 10 10 9 14 18 18 18 19 18 16 13 11 10 7 4 4 7 7 8 8 6 6 6 5 5 5 6 6 6 7 6 6 7 8 8 7 5 5 8
9 10 10 11 11 11 10 10 9 9 9 9 9 9 8 8 7 7 6 7 8 9 8 8 9 10 10 10 11 11 13 18 12 17 20 20 21 21 11 11 10 8 10 10 10 9 9 9 8 12 17 17 17 17 16 16 16 11 10 11 13 14 9 7 6 6 6 6 5 5 6 6 6 6 6 6 6 6 6 7 8 8 8 8 7
9 9 9 9 8 9 8 9 9 9 8 9 10 10 9 9 9 8 8 7 7 7 8 7 7 7 8 9 9 10 10 11 18 15 17 18 19 18 18 14 15 11 9 11 10 9 8 9 9 14 16 16 17 17 16 16 13 12 15 15 14 13 10 7 7 6 5 6 7 7 6 5 5 6 6 5 5 6 6 6 6 7 8 9 8
8 8 8 9 9 10 10 10 8 8 10 10 10 11 10 9 9 9 8 8 8 8 8 8 8 9 9 8 8 8 9 9 13 17 15 16 16 17 16 16 14 9 9 8 7 7 8 9 11 16 15 15 15 15 16 15 12 15 14 15 14 11 8 8 7 7 5 6 7 6 6 5 4 5 5 5 5 6 7 6 6 7 7 7 8
8 8 9 8 9 10 9 10 10 9 10 11 11 11 11 10 10 9 8 8 8 8 8 8 8 8 8 9 8 8 9 9 9 13 16 16 14 15 15 15 14 13 11 7 7 7 10 13 14 13 14 15 16 14 12 14 17 16 17 16 12 7 8 7 7 6 7 6 5 4 4 4 3 3 3 4 4 5 5 4 4 6 7 8 8
8 9 9 9 10 11 11 11 11 10 10 10 10 10 10 10 9 9 9 9 8 8 8 8 8 8 8 8 8 8 8 8 9 9 10 11 10 13 14 14 13 12 10 9 10 11 11 11 13 13 12 12 10 9 8 10 14 15 14 12 8 8 8 8 7 7 6 5 5 5 4 4 3 3 3 1 3 3 4 5 5 5 5 6 7
7 6 7 8 8 8 9 8 8 9 8 8 8 9 9 8 9 10 9 9 9 8 8 9 9 8 8 8 8 8 8 9 9 9 9 9 9 8 9 9 10 10 8 7 7 7 8 8 8 10 10 13 12 10 10 10 9 7 6 5 5 6 6 6 6 6 5 4 4 4 3 3 3 4 3 3 5 5 4 1 4 4 3 5 6
7 7 7 6 5 7 7 9 9 7 8 7 7 7 8 8 7 8 8 8 8 8 7 8 8 8 7 7 7 7 7 7 8 8 8 7 7 7 6 6 7 6 7 7 6 6 6 7 9 6 7 7 7 6 6 6 6 6 6 6 6 6 7 7 7 6 5 5 5 5 5 4 5 5 5 5 5 4 4 3 3 1 5 6 5
6 7 6 5 5 5 5 7 7 7 7 8 7 6 5 5 7 6 7 6 6 7 7 6 6 7 7 6 6 6 6 7 6 5 6 6 4 5 5 5 5 5 6 5 3 6 7 7 7 7 6 5 5 6 5 6 6 6 7 7 6 6 6 5 5 5 5 5 5 4 4 4 2 3 5 5 5 4 4 5 3 3 4 0 6
7 7 6 6 6 6 5 5 7 7 7 7 7 8 12 13 9 6 4 9 12 11 8 6 5 4 5 5 5 5 4 4 7 10 9 9 8 8 6 8 7 6 7 9 4 4 5 6 6 4 5 5 5 5 5 4 4 5 6 5 5 5 5 4 4 4 5 5 5 5 5 4 5 4 4 3 3 4 3 3 3 2 2 1 7
6 6 6 5 5 6 5 5 7 5 7 7 6 7 5 7 11 12 9 7 9 10 9 12 14 12 7 3 2 5 3 3 6 8 10 10 10 9 10 10 11 12 11 6 4 4 4 4 4 4 5 5 4 4 4 4 3 3 3 3 4 4 4 5 6 5 4 4 4 3 4 4 2 5 3 1 0 2 5 6 5 6 5 1 7
5 5 5 6 6 6 6 6 6 6 6 5 6 6 5 6 5 6 7 8 8 9 9 10 10 10 11 8 4 3 7 10 10 9 10 10 10 10 10 10 10 11 12 9 3 4 4 4 3 3 4 5 3 3 3 3 1 1 2 3 3 2 2 3 3 5 4 5 5 4 3 4 4 4 3 4 2 2 4 4 6 6 5 7 6
8 6 6 6 5 7 7 6 6 6 6 6 6 6 4 4 5 4 3 3 4 6 8 7 7 6 6 6 5 3 1 6 10 10 10 9 9 7 8 8 7 7 9 5 2 4 4 4 6 5 6 5 5 6 6 5 4 4 3 3 2 3 3 2 1 3 3 4 5 4 4 5 5 4 5 5 5 5 4 4 3 4 6 6 7
9 9 7 6 7 6 6 6 6 6 6 6 6 6 6 6 6 4 5 2 2 1 1 2 3 4 5 5 5 5 6 8 9 11 12 13 13 9 2 5 9 5 4 4 6 5 6 6 6 6 6 6 6 7 5 7 7 6 4 3 1 1 2 3 4 3 3 4 4 3 3 3 2 3 3 2 3 4 4 1 2 4 5 4 5
8 9 12 8 7 6 6 6 6 6 6 6 6 6 5 6 6 6 7 3 3 4 4 3 2 7 5 4 5 6 7 9 10 12 13 14 16 14 4 4 4 6 6 6 6 6 6 6 5 5 4 5 5 4 5 6 6 6 7 6 7 7 6 5 4 2 1 1 2 3 4 2 2 2 2 2 2 3 7 7 7 5 4 4 5
6 6 6 7 7 6 5 6 5 6 6 5 5 5 5 5 6 6 5 5 5 8 7 4 1 2 5 4 2 5 9 10 11 11 11 13 13 12 7 7 4 5 5 5 5 5 5 6 7 7 6 6 6 6 6 5 5 5 6 5 4 4 4 5 5 5 4 3 2 3 5 5 1 1 1 3 4 5 4 5 6 5 5 5 4
7 6 5 6 6 5 4 4 4 5 5 5 5 5 5 5 5 5 4 5 6 8 7 7 6 3 2 2 2 1 5 9 9 13 14 12 11 8 6 7 7 7 6 5 5 4 5 5 6 7 7 6 6 6 6 6 6 5 5 5 4 4 4 4 4 4 5 1 0 2 2 1 2 2 1 4 5 6 5 4 4 5 6 7 6
6 6 7 4 4 5 5 5 4 3 5 6 5 5 5 5 5 4 3 3 4 5 6 6 6 5 7 7 9 9 3 4 5 9 9 10 7 5 5 7 7 7 6 7 7 4 4 4 4 4 6 6 7 6 6 6 6 4 4 5 3 2 4 4 4 4 4 2 2 4 2 1 3 2 2 6 5 4 2 2 3 6 7 8 7
5 7 8 10 8 6 5 5 6 6 4 4 4 3 3 4 4 4 4 4 3 3 5 4 5 5 5 4 5 8 8 5 4 4 5 5 5 5 6 6 5 6 6 7 7 7 6 4 4 5 4 5 5 6 6 4 5 4 4 5 4 2 3 3 3 4 5 3 3 4 3 3 2 6 5 6 4 3 3 5 7 6 7 7 6
4 3 3 9 1 5 5 5 4 4 4 4 3 3 3 4 4 3 3 4 4 3 4 6 5 4 3 4 4 4 6 4 4 4 4 4 4 5 5 5 6 5 5 5 6 7 7 5 4 5 5 4 3 4 4 5 4 4 4 4 4 4 4 4 4 3 3 5 6 5 4 5 3 3 5 6 5 6 6 6 6 6 6 4 4
5 5 4 4 2 4 6 5 5 4 3 4 4 2 1 2 3 4 3 2 2 3 4 4 5 3 2 2 7 4 4 4 4 4 3 4 4 4 4 4 4 5 4 5 5 5 6 7 5 4 4 5 5 6 6 4 5 6 5 5 4 4 5 5 6 5 6 5 5 6 6 6 5 5 5 4 6 6 4 5 5 4 4 4 4
3 3 2 2 1 4 5 5 4 4 2 4 4 4 5 4 3 2 3 4 4 3 3 3 4 3 2 2 7 7 4 3 3 3 3 3 2 3 3 3 4 4 5 5 5 4 4 5 5 4 3 4 3 4 4 5 5 6 6 6 6 6 6 4 4 7 8 6 5 5 6 5 4 3 3 4 1 3 2 2 3 4 5 5 4
5 4 4 3 3 3 6 4 4 3 2 1 1 2 2 3 6 6 5 5 4 4 4 4 4 2 1 4 3 6 3 3 3 3 3 3 2 2 3 4 4 4 4 6 5 5 4 4 4 4 5 2 0 1 2 3 4 5 5 5 6 6 5 6 6 7 6 7 8 6 4 4 6 1 1 2 2 3 5 4 5 5 3 4 3
4 5 3 4 6 4 3 5 5 2 1 1 2 2 3 2 3 3 4 5 5 5 2 2 2 1 1 2 3 1 3 3 3 2 3 2 3 3 2 3 3 3 4 4 4 3 4 4 4 3 3 4 5 4 3 1 4 3 4 5 4 6 5 5 5 5 5 6 6 6 8 5 4 1 2 4 3 3 2 3 2 2 1 3 4
3 1 3 2 2 3 6 3 4 1 2 5 2 1 1 2 2 2 1 1 1 1 2 0 1 0 1 1 1 2 0 1 2 1 1 2 2 2 1 3 4 3 1 4 3 3 1 2 3 3 4 4 4 4 5 3 1 2 3 3 3 5 5 5 5 6 6 6 6 6 8 8 4 6 6 4 2 1 0 2 2 4 2 5 6
3 1 3 3 4 3 4 4 2 2 0 2 1 1 2 2 1 2 0 0 1 2 3 1 1 2 1 0 1 1 1 0 1 2 2 1 1 1 1 4 2 2 1 3 1 4 2 0 1 2 3 3 4 4 4 5 4 0 3 7 5 4 3 4 5 6 6 6 6 6 6 7 7 5 3 3 5 4 5 4 4 3 1 4 5
4 1 0 3 4 3 3 4 1 1 2 4 1 2 2 1 1 0 0 0 3 4 3 1 2 3 3 3 3 3 3 2 2 1 2 3 1 1 1 2 0 1 4 1 1 3 4 2 3 2 2 1 2 4 4 4 4 5 5 4 4 4 4 4 4 4 4 4 5 5 6 6 5 5 7 7 3 3 1 2 4 1 1 3 2
3 3 2 2 0 3 3 2 5 5 1 1 1 3 0 0 0 1 2 2 2 2 2 3 3 2 3 4 3 3 3 4 3 2 1 0 1 1 1 1 3 2 1 2 2 2 1 3 1 0 1 1 1 2 4 3 4 4 4 3 3 3 3 5 4 4 4 4 5 4 6 6 5 6 5 4 4 4 5 3 2 3 2 1 2
4 4 2 2 2 2 1 1 0 0 2 0 0 2 3 3 2 2 2 2 3 4 3 3 3 3 2 3 3 3 3 3 3 3 2 2 3 3 2 1 4 1 0 2 3 3 1 3 2 0 1 2 2 2 3 1 2 3 3 2 2 3 5 4 3 2 5 4 4 5 5 5 6 5 6 4 3 3 3 5 4 1 2 3 0
1 2 2 4 2 1 0 2 1 1 0 2 1 1 2 2 3 3 3 2 1 2 3 3 3 4 4 3 3 2 1 2 3 3 3 3 2 1 1 2 1 0 0 0 0 2 3 4 3 2 1 1 0 1 2 2 2 3 2 1 1 1 3 3 3 3 3 2 3 3 3 5 5 5 4 4 2 0 1 4 4 3 4 1 1
2 1 2 1 2 1 1 0 2 2 2 3 3 1 1 1 2 2 2 3 3 3 2 3 3 3 3 3 3 3 3 2 2 1 2 2 1 2 1 1 1 1 1 1 2 2 1 4 5 4 3 2 1 0 1 1 3 2 3 3 2 3 4 6 2 3 3 2 2 3 3 4 5 6 5 5 5 3 3 3 1 2 3 4 4
Wind_Direction
357 356 356 357 353 349 340 335 338 333 332 339 339 344 353 341 338 328 311 323 321 302 293 294 299 290 286 286 279 245 249 235 242 158 173 168 171 161 157 174 161 142 169 175 170 175 208 214 210 202 200 195 204 186 181 183 195 185 159 128 125 167 160 182 182 146 125 192 155 158 173 153 177 161 141 147 163 183 133 137 143 151 155 159 164
5 360 15 1 354 351 345 342 337 337 336 343 345 348 347 348 342 331 328 327 316 314 296 289 283 291 310 270 337 317 295 261 192 209 181 164 169 179 172 188 171 169 191 181 168 185 204 211 205 195 205 200 198 192 183 186 193 200 49 19 58 272 219 160 187 152 152 182 126 105 141 167 206 149 138 152 169 172 134 149 162 163 159 158 158
12 14 10 358 355 357 347 342 340 340 343 348 350 353 351 341 346 345 339 335 341 341 335 311 306 355 11 47 0 264 248 223 229 211 194 181 182 170 157 173 158 157 164 173 204 218 221 236 223 185 197 209 202 203 184 175 95 77 115 142 282 291 319 288 152 151 148 169 146 157 161 192 197 132 141 153 173 176 153 167 174 184 154 160 160
19 20 11 0 2 356 351 341 352 354 351 351 354 350 348 341 352 353 348 342 350 335 339 0 349 358 15 2 284 50 224 297 207 201 197 166 192 157 165 158 151 162 152 162 196 201 203 220 229 194 186 200 186 169 141 75 94 148 97 169 210 156 193 263 215 145 156 149 164 165 183 124 198 136 143 161 176 194 160 177 175 177 155 162 156
27 24 12 1 5 2 2 1 5 359 355 2 2 359 1 357 5 1 359 360 352 347 4 16 14 1 6 54 31 333 266 233 280 223 134 103 225 170 174 157 149 156 118 179 192 214 209 223 214 192 175 176 160 113 111 110 145 119 172 184 180 169 197 224 200 139 143 156 161 173 168 167 177 149 155 166 183 205 160 179 205 165 148 152 148
28 30 14 9 13 14 12 13 10 5 7 8 2 3 6 6 10 13 8 2 2 2 11 20 16 24 31 49 101 14 341 342 19 345 250 166 257 152 119 167 142 138 133 113 112 50 13 4 18 15 23 3 258 106 52 128 120 115 167 171 180 179 178 165 133 137 155 162 168 173 161 167 167 169 167 167 183 195 163 183 194 138 148 138 131
34 31 22 23 19 24 21 14 12 10 7 6 3 3 6 5 9 16 8 9 13 12 19 30 24 33 41 34 23 36 33 18 0 351 349 51 17 8 29 15 343 37 31 169 134 131 57 68 116 132 181 190 63 86 187 175 130 186 135 210 191 147 144 158 157 111 110 175 187 155 149 176 150 166 160 168 182 198 154 170 180 135 125 118 129
30 31 26 24 25 25 22 16 14 12 11 14 12 10 10 10 8 8 8 12 15 15 20 27 25 30 25 46 41 34 32 22 3 1 351 359 36 351 334 333 279 215 214 150 105 80 105 91 111 158 93 213 123 160 163 135 162 162 139 203 193 154 158 140 113 83 27 49 135 138 129 132 123 145 159 157 175 205 156 145 164 145 133 137 146
33 32 29 23 22 21 21 15 18 19 19 20 20 19 18 15 12 11 12 12 16 16 20 21 15 34 42 44 43 34 32 25 13 350 346 348 346 339 333 330 329 299 330 31 50 69 103 79 72 24 97 68 140 218 192 188 175 162 166 155 142 141 125 86 90 71 78 83 357 14 70 99 81 125 23 158 166 197 162 149 162 153 148 135 159
36 30 31 29 24 25 22 20 23 22 23 24 25 24 22 20 20 19 15 16 18 18 23 32 33 29 33 33 36 33 25 19 352 353 11 0 322 319 329 325 322 57 47 10 12 68 89 75 56 51 62 117 144 160 160 131 293 135 148 125 110 114 107 96 86 78 332 60 36 314 130 99 120 113 80 21 11 8 53 73 115 150 145 149 153
39 26 30 30 29 29 30 29 28 30 28 28 29 27 25 23 22 21 20 21 20 21 23 34 40 34 26 26 26 27 29 5 352 1 2 354 341 322 331 5 55 79 102 254 154 39 63 62 79 92 73 33 105 120 132 139 113 75 63 64 63 99 123 95 103 123 130 65 142 264 66 165 94 77 72 48 71 77 98 78 34 359 3 155 170
38 29 28 28 31 32 30 28 31 33 33 32 32 32 29 27 24 23 22 25 25 27 27 26 33 33 27 20 19 21 21 0 359 359 3 8 11 18 40 41 38 33 30 353 325 35 33 47 38 93 75 1 320 79 95 100 92 90 86 78 70 58 56 97 135 114 136 99 94 209 199 91 282 86 75 41 22 18 5 72 95 113 59 26 119
38 31 27 28 33 35 32 31 32 34 34 33 33 33 32 33 30 24 24 26 30 32 29 28 26 25 30 25 16 10 17 5 356 6 15 47 53 56 47 48 48 44 46 47 49 36 40 33 12 36 108 169 102 73 41 75 87 96 94 79 60 48 37 28 27 155 150 145 187 248 122 132 120 160 165 161 158 158 152 90 66 77 123 92 5
39 34 29 31 33 35 37 34 36 37 36 34 35 33 33 35 34 31 28 29 32 30 28 29 26 24 26 20 15 10 26 1 355 15 16 23 50 56 52 54 57 52 42 39 39 25 41 83 77 59 26 26 22 63 130 115 126 87 64 57 53 41 32 4 14 88 106 138 184 143 52 66 93 53 39 65 112 111 104 98 119 91 81 111 130
43 37 35 32 34 37 38 37 37 39 38 36 37 37 35 36 37 35 31 27 29 30 26 28 26 23 15 17 25 22 18 6 5 16 14 20 36 56 59 57 60 54 49 41 39 29 15 49 59 47 29 24 20 332 159 147 101 88 81 65 62 48 44 22 358 359 56 67 67 68 60 54 62 46 20 39 59 64 117 161 163 143 138 133 94
45 40 38 33 35 37 40 40 41 40 40 39 38 38 38 37 38 35 35 34 31 33 34 34 31 28 22 20 24 18 13 11 11 17 12 5 26 48 55 60 55 56 51 42 40 31 30 23 49 46 32 29 354 11 38 43 75 101 95 90 80 74 61 38 30 54 66 75 75 78 78 83 84 77 66 53 47 73 118 95 102 117 119 93 83
46 44 44 42 37 36 41 45 43 40 38 39 38 37 35 34 38 34 37 34 32 35 35 34 31 31 30 28 25 23 21 11 17 17 12 9 17 34 45 56 57 58 54 54 49 39 29 19 32 34 37 27 5 25 35 70 44 58 91 86 85 79 78 65 55 65 78 84 90 92 89 75 63 55 47 45 39 52 95 85 79 127 114 112 90
51 47 46 45 43 39 39 41 42 40 38 38 38 37 37 38 38 34 40 38 35 31 34 35 36 34 33 31 21 21 20 16 19 16 17 16 14 38 42 60 61 55 55 51 57 52 35 31 35 39 33 16 31 36 28 52 51 38 63 81 80 84 91 94 77 74 86 94 94 93 85 76 67 58 52 45 37 33 73 89 132 117 119 132 118
56 53 51 51 51 50 45 41 43 45 42 39 36 34 29 31 43 38 41 47 45 41 36 38 38 37 32 32 27 23 16 22 20 20 22 20 17 29 29 40 45 39 39 41 42 42 36 33 31 37 55 44 42 42 41 46 55 41 64 75 71 65 55 66 91 105 109 84 70 70 64 67 69 68 60 54 45 42 40 53 102 132 128 120 116
60 58 55 52 55 54 49 47 46 45 46 44 42 40 34 31 28 34 35 38 45 44 41 41 43 40 36 33 35 28 27 29 24 24 26 24 19 24 28 36 40 37 39 32 35 41 36 33 27 25 44 51 48 44 44 43 56 52 53 59 63 64 58 57 46 67 69 74 75 64 69 67 61 56 59 58 55 49 46 44 44 44 69 127 135
60 58 55 53 50 47 44 45 44 44 44 44 46 46 43 41 39 41 41 41 45 46 45 45 44 40 35 33 34 34 31 25 25 27 29 30 27 25 29 30 34 44 44 39 33 36 32 29 27 25 39 46 51 49 49 46 51 58 51 57 27 46 59 63 48 49 61 57 58 57 69 74 72 66 56 54 53 51 54 52 50 49 51 72 98
61 62 63 61 60 54 51 47 47 48 41 39 37 40 38 40 40 42 44 44 47 50 50 49 51 48 42 35 30 27 28 30 22 24 27 30 33 34 34 25 20 49 50 48 37 32 26 23 31 27 40 45 48 48 48 49 45 51 45 46 42 48 53 50 47 44 43 38 50 63 66 68 74 73 65 61 57 57 60 58 52 48 46 55 86
64 64 60 59 61 64 62 58 55 49 45 41 40 35 31 31 29 31 36 40 41 46 47 46 49 52 53 43 36 28 21 23 25 23 20 28 31 34 39 40 33 45 50 49 40 31 23 29 26 26 37 40 43 44 44 45 48 42 40 39 39 38 46 47 47 49 53 55 54 51 50 64 69 70 76 70 61 60 57 56 66 64 59 56 54
60 67 69 62 52 46 45 48 51 57 50 42 39 36 28 25 27 25 29 30 31 36 37 37 40 43 43 44 42 36 30 24 20 20 18 20 31 32 34 38 44 50 51 54 40 30 26 31 33 28 26 30 37 43 44 45 47 41 39 37 36 37 41 39 39 42 49 60 62 62 61 58 68 75 87 98 93 84 85 82 77 80 83 71 58
64 57 60 66 68 60 50 41 36 40 55 49 41 34 30 25 26 17 20 30 35 34 35 33 35 40 43 41 36 33 29 26 25 17 16 11 24 32 31 33 36 43 52 46 48 40 45 44 39 33 28 26 28 36 39 38 40 40 36 32 33 34 36 41 37 40 45 37 52 71 84 79 80 86 94 105 99 90 87 79 88 87 88 86 75
78 76 68 59 60 68 62 53 45 38 48 58 53 44 40 34 32 24 21 24 27 30 30 36 33 31 43 44 37 32 25 25 20 18 15 12 17 24 28 30 29 38 49 45 41 41 38 34 29 25 25 27 28 26 30 26 30 33 33 33 33 34 33 38 36 38 43 44 49 48 43 44 29 9 22 70 119 133 130 129 134 133 129 104 89
67 69 79 86 86 79 77 71 61 54 50 60 63 56 46 43 41 38 36 29 27 26 24 33 34 26 30 40 41 30 26 23 15 8 10 8 8 14 19 21 19 22 26 20 23 24 24 26 33 35 36 35 37 35 34 23 23 20 22 26 30 30 37 41 42 39 31 34 33 32 20 18 7 20 18 37 42 26 34 98 135 146 120 110 117
78 76 68 63 68 88 102 97 83 65 58 53 53 60 61 49 43 34 27 31 38 33 30 29 39 33 25 28 38 35 30 25 17 1 353 354 347 0 13 16 16 14 14 4 3 17 34 32 31 30 31 29 26 28 26 28 25 22 20 23 25 25 27 32 38 31 18 18 15 10 7 15 33 33 36 38 30 26 15 22 44 54 142 137 110
63 65 68 68 62 58 82 102 100 92 77 63 54 34 21 51 64 50 20 5 13 47 45 38 42 57 40 30 29 34 29 19 5 339 319 326 340 336 356 1 354 359 356 351 0 20 21 31 28 29 34 36 30 25 22 24 20 17 23 21 22 23 24 27 32 19 11 15 17 13 15 21 22 29 49 42 17 3 1 5 357 356 314 29 136
59 51 45 51 53 50 42 58 111 115 103 100 88 66 50 46 33 51 52 13 12 31 69 59 30 43 78 54 38 46 18 347 323 328 330 336 340 348 337 333 329 332 338 344 27 50 39 42 32 36 28 32 34 30 26 28 23 22 13 17 26 29 20 18 20 13 12 18 8 22 4 7 346 4 65 52 356 336 358 23 315 314 29 5 106
82 76 60 47 44 60 54 52 39 89 129 127 104 106 104 51 44 38 32 14 12 5 51 62 50 40 36 89 96 104 66 348 349 343 348 352 354 353 356 355 350 338 354 10 31 47 40 41 30 35 34 37 31 14 17 38 26 24 11 9 22 31 15 17 8 1 3 13 11 9 8 357 9 50 59 57 247 308 356 352 3 19 328 237 96
91 89 77 68 40 51 66 51 54 46 45 74 124 142 119 103 79 42 33 25 6 9 19 61 66 66 57 52 42 12 5 360 352 356 352 351 349 346 349 353 352 355 343 342 12 27 33 43 31 32 30 30 7 349 348 3 1 340 336 6 344 333 13 52 350 0 352 359 343 328 333 28 29 17 11 359 4 55 58 18 16 20 33 53 62
34 37 72 71 72 60 54 59 57 48 46 45 42 42 72 116 131 117 67 63 29 3 12 43 65 63 71 67 69 91 320 324 345 352 349 338 333 331 329 327 339 340 8 349 36 22 12 22 25 20 23 20 14 5 347 1 17 20 358 353 21 24 21 338 103 29 349 10 21 6 36 42 34 28 15 23 29 15 38 38 31 33 51 64 54
51 36 32 58 56 49 51 51 52 52 55 51 37 46 54 45 36 107 152 102 76 78 222 31 48 43 37 44 47 38 19 4 354 348 345 345 350 2 17 318 317 356 113 27 26 27 29 28 30 27 27 28 19 11 12 10 5 348 347 340 19 53 335 343 53 38 21 22 24 4 18 18 2 25 35 16 12 22 28 23 18 38 63 74 70
85 60 47 47 56 54 50 45 45 54 52 44 47 42 42 56 56 29 23 60 122 120 103 69 5 353 14 42 38 15 28 26 2 354 353 360 12 17 44 41 47 43 35 37 34 31 24 17 13 12 19 19 21 18 16 13 10 8 0 355 17 17 12 19 8 346 347 335 348 330 309 308 346 40 56 356 351 359 16 30 29 24 41 46 68
88 102 99 81 75 65 56 51 53 52 39 44 58 47 33 44 55 44 39 28 51 60 50 58 119 11 20 354 355 354 341 3 24 2 348 346 353 21 21 14 27 49 50 37 39 39 36 19 9 5 15 16 16 17 13 8 3 1 14 30 24 17 15 11 353 348 5 48 44 350 356 346 55 85 106 102 70 77 67 51 37 40 49 43 46
46 37 67 75 64 75 73 74 72 72 62 49 42 48 46 42 43 56 46 29 47 75 66 41 28 20 233 226 215 292 293 316 2 18 18 5 5 31 34 25 19 19 27 37 37 43 40 38 22 10 10 13 11 13 8 2 353 2 5 17 23 21 358 343 347 3 335 13 353 317 305 332 349 322 14 61 73 62 51 53 70 58 48 36 47
56 45 33 34 109 82 65 47 29 89 101 77 51 50 55 47 39 46 43 42 42 72 76 63 45 24 14 4 6 3 322 248 338 34 19 9 5 24 36 27 26 20 15 19 9 29 47 45 49 29 15 14 9 4 6 360 352 351 350 347 5 357 315 327 338 322 318 21 355 321 335 332 296 349 85 106 93 73 67 73 78 60 53 43 46
74 32 11 5 50 51 65 68 49 24 47 75 79 83 60 59 50 36 28 7 25 76 109 93 60 40 25 6 7 349 350 47 27 35 20 14 12 15 35 26 27 22 18 15 12 8 6 47 54 50 35 26 13 356 349 346 347 342 339 326 312 311 321 311 296 298 304 291 271 300 323 295 17 51 51 64 69 87 61 45 55 64 60 47 37
111 129 170 247 216 83 61 43 58 58 13 16 72 65 67 94 89 57 37 38 0 11 59 88 77 56 25 8 348 351 342 25 28 38 26 26 15 16 17 31 25 19 29 21 17 15 351 4 48 45 38 20 10 346 329 336 335 330 327 337 356 2 354 346 341 337 346 17 36 37 26 13 1 66 60 61 62 61 66 63 61 65 71 73 51
104 99 67 48 29 103 89 77 59 41 39 23 5 33 92 102 107 94 56 37 14 41 48 77 94 80 73 309 308 330 333 24 25 47 24 37 24 15 4 40 33 5 7 40 41 14 357 355 16 47 36 23 3 359 341 343 351 343 342 343 355 356 348 4 8 2 0 35 33 22 12 7 24 49 69 59 54 72 88 102 99 110 113 114 99
95 81 73 112 147 102 100 99 91 49 54 53 16 352 353 18 24 50 95 78 27 14 53 61 113 122 206 274 290 317 326 13 39 43 38 50 28 28 354 31 47 19 359 51 44 21 358 10 353 42 37 35 12 354 349 356 359 349 347 358 358 351 348 11 10 11 4 7 29 21 2 355 352 47 61 83 204 191 147 128 119 104 88 76 91
146 136 124 84 40 78 107 97 69 91 72 66 90 331 325 28 32 2 45 68 28 0 35 24 49 67 166 245 306 330 319 21 39 52 52 13 17 44 37 48 30 4 29 54 47 17 2 5 0 29 354 337 47 37 341 358 349 352 358 8 357 358 359 18 17 16 9 7 1 349 330 330 334 346 91 300 350 75 76 78 92 105 139 165 163
143 134 150 160 147 144 130 110 117 99 140 191 267 294 9 37 77 44 12 18 32 356 12 17 49 14 9 220 219 311 9 353 8 38 54 15 30 34 40 54 40 0 64 76 67 40 15 350 352 29 358 348 1 359 331 6 15 359 6 353 358 11 11 25 22 12 8 359 354 343 327 294 305 279 76 26 49 78 74 38 36 78 124 108 79
31 69 111 91 24 46 69 70 78 118 160 176 190 328 40 40 54 70 43 62 78 262 264 200 218 206 239 234 135 125 155 26 323 338 37 61 70 40 7 66 51 359 79 93 102 88 43 340 350 20 348 355 358 355 344 346 324 20 0 314 344 38 25 15 7 1 2 3 353 344 345 325 13 35 16 7 25 337 134 149 88 84 25 55 67
135 73 324 138 148 114 145 113 76 334 226 85 29 320 44 35 19 85 319 75 287 275 275 222 210 204 208 36 78 147 103 87 61 9 341 53 92 94 73 85 76 320 4 119 128 132 94 344 8 4 4 354 0 344 322 317 322 36 32 43 47 37 14 13 9 15 14 5 356 346 337 337 350 5 33 43 5 47 67 62 78 48 41 122 115
332 13 73 62 21 64 122 113 89 38 338 62 5 298 133 255 284 177 203 189 242 263 280 303 25 41 51 62 31 15 30 4 70 68 36 343 6 100 88 141 178 62 25 113 124 137 176 169 76 4 356 27 338 314 322 329 344 35 63 53 37 38 19 356 359 16 15 355 347 344 339 334 347 3 352 335 358 14 22 77 87 89 30 35 125
180 159 287 333 165 99 25 77 147 200 164 49 325 294 61 267 2 339 31 355 316 315 339 7 20 30 58 58 32 358 25 21 19 0 56 107 1 30 44 71 71 67 317 311 137 101 74 91 94 91 299 287 285 3 329 340 348 51 68 61 50 46 30 23 5 9 358 342 333 337 336 334 334 330 334 351 2 8 6 334 163 177 148 223 241
359 36 53 66 319 58 124 144 159 332 99 321 247 304 27 355 356 13 24 12 358 332 356 10 11 4 39 75 62 4 21 14 352 4 18 35 38 37 13 103 153 205 140 20 76 133 200 133 124 129 81 352 6 9 325 358 7 58 60 56 50 58 52 43 37 24 338 330 336 341 342 335 320 297 296 309 309 338 15 339 346 3 166 175 80
96 286 185 157 246 111 293 327 48 26 148 176 126 43 12 352 348 358 350 349 352 348 338 347 8 21 6 16 45 49 1 349 10 16 8 46 19 36 352 347 353 50 58 169 228 183 207 142 156 160 142 140 68 315 319 316 68 87 85 75 86 32 11 359 115 56 10 353 333 314 317 310 310 317 332 324 309 5 317 292 308 326 332 1 132
101 135 278 323 40 311 256 310 30 347 339 25 19 21 1 1 337 326 333 355 340 349 359 8 3 3 21 0 7 354 342 32 53 353 347 349 39 58 1 338 353 27 26 26 333 309 330 156 183 161 170 159 149 192 274 64 82 84 102 121 94 28 2 342 350 19 7 338 308 311 306 315 322 319 323 331 339 323 265 236 335 350 351 340 309